[Iaude] MPEC K124: 2024 KX [a=0.91,e=0.23,i=10.6,H=27.6]

mpec at cfa.harvard.edu mpec at cfa.harvard.edu
Wed May 29 12:27:33 EDT 2024


M.P.E.C. 2024-K124                                 Issued 2024 May 29, 16:26 UT

     The Minor Planet Electronic Circulars contain information on unusual
         minor planets, routine data on comets and natural satellites,
         and occasional editorial announcements.  They are published
    on behalf of Division F of the International Astronomical Union by the
          Minor Planet Center, Smithsonian Astrophysical Observatory,
                          Cambridge, MA 02138, U.S.A.
			  
             Prepared using the Tamkin Foundation Computer Network

                              MPC at CFA.HARVARD.EDU
            URL https://www.minorplanetcenter.net/    ISSN 1523-6714

                                    2024 KX                                     


Observations:
     K24K00X* C2024 05 28.55453517 42 49.108+09 21 35.75         19.86wXEK124F51
     K24K00X  C2024 05 28.56559417 42 38.603+09 20 08.85         20.03wXEK124F51
     K24K00X  C2024 05 28.57662417 42 28.321+09 18 42.32         19.47wXEK124F51
     K24K00X mC2024 05 29.31756917 31 21.857+07 04 26.22         19.31GVEK124I52
     K24K00X mC2024 05 29.31774417 31 21.565+07 04 23.59               VEK124I52
     K24K00X KC2024 05 29.33527617 30 52.196+07 00 01.51               VEK124I52
     K24K00X KC2024 05 29.33625717 30 50.540+06 59 46.57         18.70GVEK124I52
     K24K00X KC2024 05 29.33723017 30 48.852+06 59 32.28               VEK124I52
     K24K00X KC2024 05 29.33820317 30 47.239+06 59 17.09         18.62GVEK124I52
     K24K00X KC2024 05 29.33918917 30 45.551+06 59 02.11         18.91GVEK124I52
     K24K00X  C2024 05 29.39577617 29 03.437+06 43 40.86         18.0 GVEK124H01
     K24K00X  C2024 05 29.39932617 28 57.107+06 42 42.25         17.6 GVEK124H01
     K24K00X  C2024 05 29.40907917 28 39.681+06 39 59.90         19.0 GVEK124H01
     K24K00X  C2024 05 29.41608017 28 27.113+06 38 02.09         17.5 GVEK124H01
     K24K00X  C2024 05 29.49239417 26 51.145+06 20 03.56               VEK124F52
     K24K00X  C2024 05 29.49287117 26 50.183+06 19 55.36         18.15GVEK124F52
     K24K00X KB2024 05 29.52382117 26 54.671+06 05 29.86         17.8 GXEK124Q06
     K24K00X KB2024 05 29.53087117 26 41.480+06 03 19.50         18.9 GXEK124Q06
     K24K00X KB2024 05 29.53787017 26 28.167+06 01 09.93         16.8 GXEK124Q06
     K24K00X KC2024 05 29.62105217 23 36.11 +05 33 47.9          18.3 VqEK124900
     K24K00X KC2024 05 29.63017317 23 15.68 +05 30 34.8          18.4 VqEK124900

Observer details:
900 Moriyama.  Observer Y. Ikari.  0.26-m f/7.0 reflector + CMO.
F51 Pan-STARRS 1, Haleakala.  Observers J. Herman, T. Lowe, P. Minguez, A.
    Schultz, I. Smith.  Measurers K. Chambers, T. de Boer, J. Fairlamb, H.
    Gao, M. Huber, C.-C. Lin, E. Magnier, Y. Ramanjooloo, R. Wainscoat, R.
    Weryk.  1.8-m Ritchey-Chretien + CCD.
F52 Pan-STARRS 2, Haleakala.  Observers J. Herman, T. Lowe, P. Minguez, A.
    Schultz, I. Smith.  Measurers K. Chambers, T. de Boer, J. Fairlamb, H.
    Gao, M. Huber, C.-C. Lin, E. Magnier, Y. Ramanjooloo, R. Wainscoat, R.
    Weryk.  1.8-m Ritchey-Chretien + CCD.
H01 Magdalena Ridge Observatory, Socorro.  Observers W. H. Ryan, E. V. Ryan.
    Measurer W. H. Ryan.  2.4-m f/8.9 Ritchey-Chretien + CCD.
I52 Steward Observatory, Mt. Lemmon Station.  Observer V. F. Carvajal.
    Measurers T. Beuden, V. F. Carvajal, D. Fay, J. B. Fazekas, D. C. Fuls, A.
    R. Gibbs, A. D. Grauer, H. Groeller, J. K. Hogan, R. A. Kowalski, S. M.
    Larson, G. J. Leonard, D. Rankin, R. L. Seaman, F. C. Shelly, K. W.
    Wierzchos.  1.0-m prime focus + CCD.
Q06 Tarui Observatory, Tarui.  Observer H. Watanabe.  0.35-m f/1.9 Schmidt-
    Cassegrain + CMO.

Orbital elements:
2024 KX                                                  Earth MOID = 0.0014 AU
Epoch 2024 Mar. 31.0 TT = JDT 2460400.5                 MPC                     
M 180.81675              (2000.0)            P               Q                  
n   1.13899843     Peri.  311.86859     +0.91887871     -0.35492885             
a   0.9080727      Node    69.57539     +0.39395016     +0.80151474             
e   0.2302351      Incl.   10.59463     +0.02156831     +0.48124799             
P   0.87           H   27.65          G   0.15           U   5                  
Residuals in seconds of arc
240528 F51  0.2-  0.0     240529 I52  0.8-  0.4+    240529 F52  0.2+  0.2-
240528 F51 (1.3-  0.7-)   240529 I52  0.2-  0.1-    240529 F52  0.2+  0.2+
240528 F51  0.3+  0.0     240529 I52  0.4-  0.0     240529 Q06  0.5-  0.8+
240529 I52  0.3-  0.0     240529 H01  0.0   0.0     240529 Q06  0.1-  0.2+
240529 I52  0.3-  0.1-    240529 H01  0.1-  0.1-    240529 Q06  0.1+  0.7+
240529 I52  0.3-  0.0     240529 H01  0.1-  0.1-    240529 900  0.5-  0.1+
240529 I52  0.2-  0.1-    240529 H01  0.2-  0.1-    240529 900  0.5-  0.3-

Ephemeris:
2024 KX                  a,e,i = 0.91, 0.23, 11                  q = 0.6990
Date    TT    R. A. (2000) Decl.     Delta      r    Elong.  Phase     V
2024 04 29    17 59 08.5 +11 57 17   0.1523  1.0932   120.9    52.2    25.7
...
2024 05 14    18 05 50.3 +13 13 05   0.08066 1.0632   129.0    47.7    24.1
...
2024 05 22    18 03 56.6 +13 03 32   0.04296 1.0426   134.1    44.2    22.6
...
2024 05 28    17 48 18.0 +10 20 25   0.01493 1.0251   141.5    38.0    20.1
2024 05 29    17 37 08.1 +08 18 02   0.01030 1.0220   145.1    34.5    19.2
2024 05 30    17 08 28.6 +02 53 55   0.0057671.0189   153.4    26.4    17.7
...
2024 06 05    06 22 53.2 -16 13 36   0.02279 0.9985    44.6   134.5    25.6
...
2024 06 13    06 11 23.7 -13 58 49   0.06034 0.9693    38.8   138.9    28.2
...
2024 06 28    06 05 47.4 -10 53 30   0.1341  0.9094    34.6   140.6    30.0

A. U. Tomatic                (C) Copyright 2024 MPC           M.P.E.C. 2024-K124





More information about the Iaude mailing list